Regional Weather Roundup
Issued by NWS Charleston, SC

Current Version | Previous Version | Text Only | Print | Product List | Glossary Off
Versions: 1 2 3 4 5 6 7 8 9 10 11 12 13 14 15 16 17 18 19 20 21 22 23 24 25 26 27 28 29 30 31 32 33 34 35 36 37 38 39 40 41 42 43 44 45 46 47 48 49 50

000
ASUS42 KCHS 250027
RWRCHS

Regional Weather Roundup
National Weather Service Charleston SC
800 PM EDT TUE APR 24 2018

NOTE: "fair" indicates few or no clouds below 12,000 feet with no
significant weather and/or obstructions to visibility.

Not all stations are quality controlled. Use data with caution,
especially dewpoint observations.

SCZ027-030-031-034>040-042>050-250100-
...Southeast South Carolina...

CITY           SKY/WX    TMP DP  RH WIND       PRES   REMARKS
N Charleston   FAIR      69  58  67 SW12      29.80S
6HR MIN TEMP:  69; 6HR MAX TEMP:  79;

Waterfront Prk   N/A     69  61  75 SW10      29.65S
Mount Pleasant FAIR      66  61  82 S6        29.81S
Johns Island   FAIR      66  61  82 SW8G14    29.82R
Pinopolis      NOT AVBL
Moncks Corner  FAIR      68  57  68 SW9       29.80R
Summerville    FAIR      68  55  64 CALM      29.81R
Beaufort MCAS  FAIR      71  56  58 SW8       29.81S
6HR MIN TEMP:  70; 6HR MAX TEMP:  79;

Beaufort Arpt  FAIR      68  61  77 S6        29.82R
Hilton Head Is FAIR      68  63  83 S3        29.83S
Walterboro     FAIR      68  55  64 SW3       29.82R
Allendale      MOCLDY    70  54  56 CALM      29.81S

...Southern Midlands and Pee Dee...

CITY           SKY/WX    TMP DP  RH WIND       PRES   REMARKS
Georgetown     MOCLDY    64  63  94 S9        29.82R
Kingstree      CLOUDY    72  59  64 S3        29.78R
Orangeburg     FAIR      68  55  63 SW6       29.79R
6HR MIN TEMP:  68; 6HR MAX TEMP:  77; 6HR PCP: TRACE;

Barnwell       CLOUDY    68  54  60 SW9       29.81R
Aiken          CLOUDY    64  57  77 SW7       29.84R
Manning        FAIR      66  50  55 SW6       29.78R
Columbia       MOCLDY    72  56  57 SW8       29.77R
6HR MIN TEMP:  72; 6HR MAX TEMP:  79;

Sumter         FAIR      69  55  60 SW8       29.75R
6HR MIN TEMP:  69; 6HR MAX TEMP:  80;

Florence       MOCLDY    73  57  57 SW5       29.76S
6HR MIN TEMP:  73; 6HR MAX TEMP:  81;

Myrtle Beach   FAIR      65  61  87 S10       29.82R
N Myrtle Beach FAIR      64  61  90 S9        29.80S
6HR MIN TEMP:  64; 6HR MAX TEMP:  71;


$$

GAZ063-065-086>088-099>101-113>116-118-119-134>141-150-250100-
...Southeast Georgia...

CITY           SKY/WX    TMP DP  RH WIND       PRES   REMARKS
Savannah Arpt  MOCLDY    71  55  56 W7        29.83S
6HR MIN TEMP:  71; 6HR MAX TEMP:  80;

Hunter AAF     CLOUDY    72  54  53 SW9       29.81R
6HR MIN TEMP:  72; 6HR MAX TEMP:  78;

Fort Stewart   MOCLDY    71  54  55 W6        29.82S
6HR MIN TEMP:  71; 6HR MAX TEMP:  78;

Statesboro     CLOUDY    69  51  52 W3        29.84R
Sylvania       CLOUDY    69  58  70 CALM      29.84S
Claxton        FAIR      67  59  77 CALM      29.85R

...CSRA, Central and far Southeast Georgia...

CITY           SKY/WX    TMP DP  RH WIND       PRES   REMARKS
Thomson        CLOUDY    66  57  74 NW5       29.87R
Augusta-Bush   FAIR      67  58  72 SW3       29.81R
6HR MIN TEMP:  67; 6HR MAX TEMP:  77; 6HR PCP: TRACE;

Augusta-Daniel FAIR      68  58  70 W6        29.81S
Swainsboro     CLOUDY    68  59  73 W6        29.86R
Vidalia        MOCLDY    68  59  73 SW5       29.85R
Eastman        CLOUDY    70  49  47 W5        29.89R
Hazlehurst     FAIR      70  54  56 SW3       29.86R
Alma           MOCLDY    71  54  54 W6        29.86R
6HR MIN TEMP:  71; 6HR MAX TEMP:  77;

Waycross       CLOUDY    71  53  51 W5        29.87R
Jesup          NOT AVBL
Baxley         MOCLDY    68  54  60 W3        29.86R
Brunswick      FAIR      68  54  60 CALM      29.87R
Saint Simons   CLOUDY    73  56  54 W7        29.85R
6HR MIN TEMP:  73; 6HR MAX TEMP:  79;


$$

SCZ027-028-034-036>038-045-046-048>050-GAZ119-141-250100-
...Lake and Supplemental Coastal Observations...

STATION/POSITION TIME  TEMP    WIND        PRES    WAVE   SWELL
                       AIR SEA DIR/SP/G            HT/PER HT/PER/DIR
                 (UTC) (F)     (DEG/KT/KT) (MB)    (FT/S) (FT/S/D)
Winyah Bay       2345   67     210/ 12     1009.0S
Lake Murray      2320   71     240/  5/  8 1007.5R
ACE Basin NERRS  2345   68        CALM       N/A
Fort Pulaski     0000   71 66  260/  5/  6 1010.4
Sapelo Island    0000   71     260/  6     1011.0

$$

ANZ835-935-AMZ111-154-330-350-352-354-370-450-454-472-250100-
...C-MAN and Buoy Observations...

STATION/POSITION TIME  TEMP    WIND        PRES    WAVE   SWELL
                       AIR SEA DIR/SP/G            HT/PER HT/PER/DIR
                 (UTC) (F)     (DEG/KT/KT) (MB)    (FT/S) (FT/S/D)
Buoy 41004       0000      69  200/ 14/ 19 1010.1
Buoy 41008       2350   69 66  250/  6/  6 1010.3R   4/ 9   3/110/ 9
Folly Beach CMAN NOT AVBL
Capers Nearshore 0008   66 64  230/ 12/ 16 1009.0R
Fripp Nearshore  0008   66 65  210/ 12/ 16 1009.5R


STATION/POSITION TIME  TEMP    WIND        PRES    WAVE   SWELL
                       AIR SEA DIR/SP/G            HT/PER HT/PER/DIR
                 (UTC) (F)     (DEG/KT/KT) (MB)    (FT/S) (FT/S/D)
5E St. Marys GA  0000      69                N/A     4/10   2/ 90/11
Frying Pan Buoy  0010   70 70  210/ 14/ 19 1010.3
Buoy 41025       0010   68 70  130/ 31/ 41 1013.0
Cape Lookout NC  NOT AVBL
Buoy 41002       0010   72 73  170/ 27/ 33 1013.6
Buoy 41010       0010   76 76  140/ 16/ 17 1012.6
St Augustine FL  0000   73 68  230/  7/  9 1012.4R


$$



USA.gov is the U.S. government's official web portal to all federal, state and local government web resources and services.